WetterOnline ( https://www.wetteronline.de )

Wetter aktuell Algeciras

Aktuelles Wetter: Gibraltar (5m)

6-stündlich | Neueste Meldungen
Ortszeit Temperatur Wetter
Do, 13.06. 14:00 21.9° C wolkenlos
Do, 13.06. 8:00 18.6° C wolkenlos
Do, 13.06. 2:00 20.6° C wolkenlos
Mi, 12.06. 20:00 25.6° C wolkenlos
Mi, 12.06. 14:00 25.9° C wolkenlos
Mi, 12.06. 8:00 19.7° C wolkenlos
Mi, 12.06. 2:00 19.6° C wolkenlos
Di, 11.06. 20:00 23.1° C wolkenlos
Ortszeit Temperatur Wetter
Do, 13.06. 16:00 22.9° C wolkenlos
Do, 13.06. 15:00 22.6° C wolkenlos
Do, 13.06. 14:00 21.9° C wolkenlos
Do, 13.06. 13:00 21.7° C wolkenlos
Do, 13.06. 12:00 21.5° C wolkenlos
Do, 13.06. 11:00 20.3° C wolkenlos
Do, 13.06. 10:00 20.0° C wolkenlos
Ortszeit Relative Feuchte Sichtweite
Do, 13.06. 14:00 78% 24 km
Do, 13.06. 8:00 90% 10 km
Do, 13.06. 2:00 75% 22 km
Mi, 12.06. 20:00 48% 27 km
Mi, 12.06. 14:00 53% 25 km
Mi, 12.06. 8:00 75% 24 km
Mi, 12.06. 2:00 76% 27 km
Di, 11.06. 20:00 60% 30 km
Ortszeit Relative Feuchte Sichtweite
Do, 13.06. 16:00 74% 23 km
Do, 13.06. 15:00 74% 24 km
Do, 13.06. 14:00 78% 24 km
Do, 13.06. 13:00 80% 21 km
Do, 13.06. 12:00 77% 18 km
Do, 13.06. 11:00 79% 17 km
Do, 13.06. 10:00 79% 16 km
Ortszeit Niederschlagsmenge Niederschlagsart
Do, 13.06. 14:00 0.0 l/m2 in 6 Std. -
Do, 13.06. 8:00 0.0 l/m2 in 12 Std. -
Do, 13.06. 2:00 0.0 l/m2 in 6 Std. -
Mi, 12.06. 20:00 0.0 l/m2 in 12 Std. -
Mi, 12.06. 14:00 0.0 l/m2 in 6 Std. -
Mi, 12.06. 8:00 0.0 l/m2 in 12 Std. -
Mi, 12.06. 2:00 0.0 l/m2 in 6 Std. -
Di, 11.06. 20:00 0.0 l/m2 in 12 Std. -
Ortszeit Niederschlagsmenge Niederschlagsart
Do, 13.06. 16:00 0.0 l/m2 in 1 Std. -
Do, 13.06. 15:00 0.0 l/m2 in 1 Std. -
Do, 13.06. 14:00 0.0 l/m2 in 1 Std. -
Do, 13.06. 13:00 0.0 l/m2 in 1 Std. -
Do, 13.06. 12:00 0.0 l/m2 in 1 Std. -
Do, 13.06. 11:00 0.0 l/m2 in 1 Std. -
Do, 13.06. 10:00 0.0 l/m2 in 1 Std. -
Ortszeit Stärke Spitze Richtung
km/h Bft. km/h Grad Sektor
Do, 13.06. 14:00 24 4 35 100° O
Do, 13.06. 8:00 9 2 15 40° NO
Do, 13.06. 2:00 17 3 24 240° SW
Mi, 12.06. 20:00 19 3 26 210° SW
Mi, 12.06. 14:00 17 3 26 210° SW
Mi, 12.06. 8:00 15 3 22 250° W
Mi, 12.06. 2:00 31 5 39 290° W
Di, 11.06. 20:00 28 4 37 280° W
Ortszeit Stärke Spitze Richtung
km/h Bft. km/h Grad Sektor
Do, 13.06. 16:00 28 4 39 110° O
Do, 13.06. 15:00 24 4 33 100° O
Do, 13.06. 14:00 24 4 35 100° O
Do, 13.06. 13:00 22 4 30 100° O
Do, 13.06. 12:00 20 4 28 90° O
Do, 13.06. 11:00 11 2 19 80° O
Do, 13.06. 10:00 9 2 17 60° NO
Ortszeit Untergrenze Bedeckung Gattung
total tief tief mittel hoch
Do, 13.06. 14:00 - 0/8 0/8 - - -
Do, 13.06. 8:00 - 0/8 0/8 - - -
Do, 13.06. 2:00 - 0/8 0/8 - - -
Mi, 12.06. 20:00 - 0/8 0/8 - - -
Mi, 12.06. 14:00 - 0/8 0/8 - - -
Mi, 12.06. 8:00 - 0/8 0/8 - - -
Mi, 12.06. 2:00 - 0/8 0/8 - - -
Di, 11.06. 20:00 - 0/8 0/8 - - -
Ortszeit Bedeckungsgrad in Achtel und Wolkenuntergrenze
Do, 13.06. 16:00 keine Wolken
Do, 13.06. 15:00 keine Wolken
Do, 13.06. 14:00 keine Wolken
Do, 13.06. 13:00 keine Wolken
Do, 13.06. 12:00 keine Wolken
Do, 13.06. 11:00 keine Wolken
Do, 13.06. 10:00 keine Wolken
Ortszeit Luftdruck NN (hPa) Tendenz (hPa in 3 Std.)
Do, 13.06. 14:00 1020 - 0,2
Do, 13.06. 8:00 1020 + 0,8
Do, 13.06. 2:00 1019 + 0,6
Mi, 12.06. 20:00 1016 - 0,4
Mi, 12.06. 14:00 1018 - 0,2
Mi, 12.06. 8:00 1016 + 0,7
Mi, 12.06. 2:00 1017 + 0,5
Di, 11.06. 20:00 1015 - 0,3
Ortszeit Luftdruck NN (hPa) Tendenz (hPa in 3 Std.)
Do, 13.06. 16:00 1019 - 1,2
Do, 13.06. 15:00 1020 - 0,7
Do, 13.06. 14:00 1020 - 0,2
Do, 13.06. 13:00 1021 + 0,2
Do, 13.06. 12:00 1021 + 0,5
Do, 13.06. 11:00 1020 + 0,9
Do, 13.06. 10:00 1020 + 1,2
Ortszeit Schneehöhe (cm)
Do, 13.06. 14:00 -
Do, 13.06. 8:00 -
Do, 13.06. 2:00 -
Mi, 12.06. 20:00 -
Mi, 12.06. 14:00 -
Mi, 12.06. 8:00 -
Mi, 12.06. 2:00 -
Di, 11.06. 20:00 -
Ortszeit Schneehöhe (cm)
Do, 13.06. 16:00 -
Do, 13.06. 15:00 -
Do, 13.06. 14:00 -
Do, 13.06. 13:00 -
Do, 13.06. 12:00 -
Do, 13.06. 11:00 -
Do, 13.06. 10:00 -
Link zu dieser Seite / Seite empfehlen

Das Wetter in ...